This is the latest recevied weather packets stored in our database for station/object SP1BMW-13. If no packets are shown the sender has not sent any weather packets the latest 1 day(s).
| Time | Temp. | Humidity | Pressure | Rain* | Wind** | Luminosity | Snow |
|---|---|---|---|---|---|---|---|
| 1777997866 | 13.33° C | 88% | 1008.3 hPa | 0 mm | 0.89 m/s, 325° | 21 W/m² | - |
| 1777997806 | 13.33° C | 88% | 1008.2 hPa | 0 mm | 0.45 m/s, 25° | 26 W/m² | - |
| 1777997746 | 13.33° C | 88% | 1008.2 hPa | 0 mm | 0 m/s | 28 W/m² | - |
| 1777997687 | 13.33° C | 88% | 1008.3 hPa | 0 mm | 0.89 m/s, 3° | 26 W/m² | - |
| 1777997626 | 13.33° C | 88% | 1008.3 hPa | 0 mm | 0.45 m/s, 12° | 25 W/m² | - |
| 1777997567 | 13.33° C | 88% | 1008.2 hPa | 0 mm | 0.45 m/s, 333° | 23 W/m² | - |
| 1777997506 | 13.33° C | 88% | 1008.3 hPa | 0 mm | 0.89 m/s, 345° | 24 W/m² | - |
| 1777997446 | 13.33° C | 88% | 1008.2 hPa | 0 mm | 0.89 m/s, 313° | 23 W/m² | - |
| 1777997386 | 13.33° C | 88% | 1008.4 hPa | 0 mm | 0.89 m/s, 334° | 22 W/m² | - |
| 1777997326 | 13.33° C | 88% | 1008.4 hPa | 0 mm | 0 m/s | 21 W/m² | - |
| 1777997266 | 13.33° C | 89% | 1008.3 hPa | 0 mm | 0 m/s | 19 W/m² | - |
| 1777997206 | 13.33° C | 89% | 1008.1 hPa | 0 mm | 0 m/s | 18 W/m² | - |
| 1777997147 | 13.33° C | 88% | 1008.3 hPa | 0 mm | 0 m/s | 19 W/m² | - |
| 1777997086 | 13.33° C | 88% | 1008.3 hPa | 0 mm | 0 m/s | 20 W/m² | - |
| 1777997027 | 13.33° C | 88% | 1008.3 hPa | 0 mm | 0 m/s | 21 W/m² | - |
| 1777996966 | 13.33° C | 88% | 1008.4 hPa | 0 mm | 0 m/s | 21 W/m² | - |
| 1777996907 | 13.33° C | 88% | 1008.2 hPa | 0 mm | 0 m/s | 21 W/m² | - |
| 1777996847 | 13.33° C | 88% | 1008.1 hPa | 0 mm | 0 m/s | 23 W/m² | - |
| 1777996786 | 13.33° C | 88% | 1008.1 hPa | 0 mm | 0 m/s | 24 W/m² | - |
| 1777996728 | 13.33° C | 88% | 1008.4 hPa | 0 mm | 0.45 m/s, 36° | 25 W/m² | - |
| 1777996667 | 13.33° C | 88% | 1008.4 hPa | 0 mm | 0.45 m/s, 56° | 26 W/m² | - |
| 1777996606 | 13.33° C | 88% | 1008.3 hPa | 0 mm | 0.45 m/s, 45° | 27 W/m² | - |
| 1777996547 | 13.33° C | 88% | 1008.2 hPa | 0 mm | 0.45 m/s, 47° | 29 W/m² | - |
| 1777996486 | 13.33° C | 88% | 1008.4 hPa | 0 mm | 0 m/s | 31 W/m² | - |
| 1777996426 | 13.33° C | 89% | 1008.2 hPa | 0 mm | 0.45 m/s, 40° | 30 W/m² | - |
* Rain latest hour (hover to see other rain measurements)
** Current wind speed in m/s (hover to see current wind gust speed)